Flag for Iceland Weather past 2 weeks in Reykjavik, Iceland

Now
52 °F

Partly sunny.


Feels Like: 48 °F
Forecast: N/A
Wind: 12 mph from Southwest

Location: Reykjavik Airport

Current Time: Sep 2, 2015 at 5:21:13 PM

Latest Report: Sep 2, 2015 at 5:00 PM


Visibility: N/A

Pressure: 30.30 "Hg

Humidity: 77%

Dew point: 45 °F

Location of ReykjavikLocation

Historic Weather in Reykjavik — Graph

°F

Reykjavik temperature yesterday

Maximum temperature yesterday: 52 °F (at 12:00 PM)
Minimum temperature yesterday: 48 °F (at 12:00 AM)
Average temperature yesterday: 50 °F

Past Weeks' High & Low Weather Summary

 TemperatureHumidityPressure
High70 °F (Aug 25, 2:00 PM)94% (Aug 21, 11:00 PM)30.36 "Hg (Aug 21, 11:00 PM)
Low41 °F (Aug 29, 3:00 AM)43% (Aug 25, 2:00 PM)29.15 "Hg (Aug 27, 5:00 AM)
Average52 °F74%29.73 "Hg
* Reported Aug 18 4:00 PM — Sep 2 4:00 PM, Reykjavik, Weather by CustomWeather, © 2015

Note: Actual official high and low records may vary slightly from our data, if they occured in-between our weather recording intervals... More about our weather records

Advertising

Reykjavik weather history for previous 24 hours

 ConditionsComfort  
Time TempWeatherWind HumidityBarometerVisibility
4:00 PM
Wed, Sep 2
52 °FPartly sunny.5 mph77%30.30 "HgN/A
3:00 PM52 °FPartly sunny.2 mph72%30.33 "HgN/A
2:00 PM52 °FPartly sunny.6 mph72%30.33 "HgN/A
1:00 PM52 °FPartly sunny.No wind72%30.33 "HgN/A
12:00 PM52 °FPartly sunny.No wind67%30.33 "HgN/A
11:00 AM50 °FPartly sunny.No wind71%30.36 "HgN/A
10:00 AM50 °FPartly sunny.No wind71%30.36 "HgN/A
9:00 AM48 °FPartly sunny.5 mph82%30.36 "HgN/A
8:00 AM48 °FPartly sunny.5 mph82%30.36 "HgN/A
7:00 AM48 °FBroken clouds.6 mph87%30.36 "HgN/A
6:00 AM48 °FPartly cloudy.2 mph82%30.36 "HgN/A
5:00 AM48 °FPartly cloudy.6 mph87%30.36 "HgN/A
4:00 AM48 °FPartly cloudy.7 mph82%30.36 "HgN/A
3:00 AM48 °FPartly cloudy.1 mph87%30.36 "HgN/A
2:00 AM50 °FPartly cloudy.3 mph88%30.36 "HgN/A
1:00 AM50 °FPartly cloudy.No wind88%30.36 "HgN/A
12:00 AM50 °FPartly cloudy.No wind82%30.36 "HgN/A
11:00 PM
Tue, Sep 1
50 °FPartly cloudy.No wind82%30.36 "HgN/A
9:00 PM50 °FDrizzle. Overcast.1 mph82%30.36 "HgN/A
8:00 PM50 °FPartly sunny.No wind88%30.36 "HgN/A
7:00 PM50 °FMostly cloudy.3 mph88%30.36 "HgN/A
6:00 PM50 °FCool.7 mph88%30.36 "Hg6 mi
5:00 PM52 °FMostly cloudy.3 mph77%30.36 "HgN/A
Weather by CustomWeather, © 2015

See weather overviewHow to use our weather pages